Wind_Speed
26 27 26 25 23 21 19 17 16 15 14 12 9 6 4 2 1 2 5 7 9 10 11 11 12 13 13 13 14 15 16 17 17 17 18 19 19 20 21 21 23 24 25 26 27 28 28 29 29 30 30 30 31 30 30 29 28 27 25 24 23 23 21
26 28 28 27 25 23 21 20 19 17 16 15 13 10 6 4 2 1 2 4 6 8 9 10 10 11 12 12 13 14 15 16 16 17 17 17 18 19 19 20 20 22 23 24 25 26 27 28 28 28 29 29 29 30 30 30 30 29 28 27 25 24 23
30 29 29 28 27 26 24 22 20 19 19 18 16 13 10 7 5 3 1 1 3 5 6 7 8 9 10 10 11 12 13 14 15 16 16 17 17 17 18 18 19 20 21 22 23 24 25 26 26 27 27 28 28 28 29 29 29 30 29 28 27 25 25
32 30 30 30 29 28 26 24 23 21 20 20 18 16 13 11 8 6 4 1 0 2 4 5 6 7 8 8 8 9 10 12 12 13 14 15 16 16 17 17 18 18 19 19 20 21 22 23 24 24 25 26 26 27 27 28 28 28 29 28 27 27 26
34 31 31 31 31 30 29 26 25 24 22 21 20 18 17 14 11 9 7 4 2 2 2 3 3 4 5 6 6 7 8 9 10 11 12 13 14 15 16 16 16 17 17 18 18 18 19 20 20 21 22 23 23 24 25 26 26 26 27 27 27 27 27
38 35 33 33 34 33 31 28 26 25 24 23 22 20 18 17 14 12 10 8 6 4 4 2 2 2 3 4 4 5 5 6 7 8 9 11 12 13 14 15 15 16 16 17 17 17 17 18 18 19 20 20 21 22 23 24 24 24 24 25 25 25 25
42 39 35 34 35 35 33 30 27 25 25 24 23 21 20 19 17 15 12 10 8 7 6 4 3 2 1 2 2 3 3 4 4 6 7 8 10 11 12 13 14 14 15 16 16 16 16 16 16 17 17 18 18 19 20 21 21 22 22 23 23 24 23
45 41 38 35 34 35 35 33 29 26 26 25 25 24 24 22 20 18 15 13 11 10 9 7 6 5 3 2 2 1 1 1 2 3 4 6 7 8 10 10 11 11 13 14 15 15 15 15 15 15 15 15 16 17 17 17 17 18 19 19 21 22 22
46 42 39 38 36 34 35 35 33 30 28 28 28 27 26 23 21 19 19 17 15 13 12 11 9 8 7 5 4 4 3 2 2 2 2 2 3 5 6 7 8 9 9 10 12 13 13 13 13 13 13 13 13 13 14 15 16 16 16 16 17 18 18
45 42 38 39 39 38 37 37 36 33 31 31 30 28 26 23 21 20 20 21 19 16 15 14 12 11 10 9 8 7 6 5 4 4 3 2 2 3 4 5 6 7 7 7 8 8 10 11 11 11 11 11 11 11 11 12 13 14 15 14 14 14 14
45 43 41 41 42 41 40 40 40 38 35 33 32 31 30 28 25 23 22 22 22 20 19 17 16 15 13 12 12 11 9 9 8 7 6 5 5 4 4 5 5 5 5 5 6 5 6 7 8 9 9 9 9 9 8 9 10 12 13 13 12 12 12
47 44 44 47 48 45 41 41 42 42 39 36 33 34 35 33 29 27 26 25 25 24 22 21 20 18 17 16 15 14 13 12 11 10 9 8 8 8 8 7 7 5 5 5 5 5 5 4 5 6 6 7 7 7 7 6 7 8 10 11 10 10 10
48 44 43 47 51 49 44 43 43 44 42 40 37 37 37 35 32 31 31 30 29 28 26 25 23 22 20 19 18 17 16 15 14 14 13 12 11 11 11 11 10 8 7 7 6 6 6 6 4 3 3 4 4 5 5 5 4 4 5 7 7 7 7
51 47 42 41 45 46 45 45 45 45 44 44 42 40 38 34 32 31 31 32 32 31 29 27 25 24 24 23 22 21 20 19 18 17 16 15 15 14 13 14 14 13 11 10 10 8 8 8 7 5 4 3 2 3 3 2 2 1 1 2 4 6 7
58 54 47 42 41 43 44 46 47 47 46 47 46 43 40 35 32 32 33 35 35 33 32 30 29 29 29 28 27 25 24 23 22 21 20 19 18 17 17 17 17 17 16 15 14 13 12 11 9 9 8 6 5 4 4 4 4 3 3 3 4 6 7
65 62 56 48 44 45 46 46 47 48 48 49 48 45 43 41 41 40 40 41 40 36 34 33 34 35 32 29 28 27 26 26 25 24 23 22 21 21 21 20 21 21 20 19 18 17 17 15 14 12 11 11 10 8 8 8 8 7 6 5 5 6 7
65 62 59 55 49 47 49 48 47 48 50 52 51 48 47 48 48 47 46 46 45 42 39 37 37 36 34 32 30 29 29 29 28 27 26 25 25 26 25 25 25 25 25 24 23 22 21 20 19 16 14 13 13 13 13 13 11 9 8 8 8 8 8
65 62 59 59 55 50 50 49 48 49 52 54 54 52 50 50 50 48 49 49 49 47 45 42 38 37 37 36 33 31 30 29 28 28 27 27 29 30 29 29 29 28 28 28 27 26 25 24 23 20 18 16 14 16 19 18 14 11 10 10 11 11 10
66 64 62 62 60 56 52 49 46 47 51 55 55 54 53 52 51 51 51 50 49 48 47 44 41 39 40 40 36 33 33 30 28 27 27 29 31 32 32 31 31 31 30 30 29 28 27 27 27 25 22 18 16 17 20 20 17 16 14 14 14 14 14
68 66 66 65 64 62 59 53 46 43 48 54 55 55 54 53 52 53 54 53 51 50 47 46 44 42 42 42 39 36 36 35 32 31 30 31 33 35 35 34 33 33 33 32 31 29 29 30 29 28 26 22 20 21 20 18 18 19 18 17 17 17 17
74 71 69 68 66 65 64 63 58 49 46 51 55 56 55 55 54 55 56 56 54 52 50 49 49 48 46 46 45 42 40 38 37 37 37 36 37 38 38 37 36 35 35 35 33 31 31 32 31 30 30 26 24 24 23 20 19 20 20 21 21 20 20
78 77 76 72 69 68 66 67 68 61 52 50 55 56 55 55 56 57 58 58 56 54 52 52 53 53 51 52 53 53 48 43 41 40 40 40 40 40 40 40 39 38 37 37 36 34 34 34 32 32 33 32 30 29 27 25 24 22 21 22 24 24 24
77 79 79 76 72 71 70 69 72 70 61 55 57 58 57 56 57 58 58 58 57 56 54 54 56 56 55 56 58 57 54 51 48 46 44 43 45 46 46 44 43 42 40 38 38 37 38 38 36 33 33 34 35 35 33 31 30 28 25 24 25 26 27
82 80 81 80 78 76 74 73 73 74 70 64 62 62 60 57 58 59 59 57 57 57 57 57 59 59 59 60 61 60 58 56 55 52 50 49 51 53 52 49 45 45 45 43 41 40 41 41 39 37 36 36 38 39 39 37 36 35 32 30 29 29 29
88 85 85 86 85 83 81 79 77 76 75 72 68 66 64 61 60 61 60 59 57 58 58 59 60 61 61 61 62 62 60 59 58 57 57 57 58 58 57 56 51 48 49 49 46 45 45 44 43 42 41 40 41 42 43 43 42 40 38 37 35 34 33
93 91 90 90 89 88 87 85 83 81 79 77 75 73 70 67 65 64 62 60 58 59 60 60 61 61 61 62 62 63 62 61 61 61 61 62 62 61 61 61 57 53 52 52 51 51 50 49 48 47 46 46 45 44 45 47 46 44 42 41 41 39 37
95 95 95 94 93 92 90 89 88 87 85 82 80 78 76 74 72 69 67 63 61 61 62 63 64 64 63 62 62 62 61 62 63 63 63 64 64 63 64 63 60 57 56 55 55 54 54 53 53 52 51 51 50 48 47 48 48 47 46 44 43 43 42
96 97 97 96 96 95 94 94 93 92 91 88 85 83 81 80 78 76 74 70 67 65 65 65 65 65 65 66 67 66 65 66 67 66 65 66 66 66 66 65 63 61 60 59 58 57 57 57 57 55 54 55 54 52 51 51 49 49 50 49 48 48 48
97 98 98 97 95 95 95 96 96 96 95 94 92 89 86 84 84 82 81 78 74 71 70 68 65 62 62 65 69 71 71 70 71 69 68 68 68 68 68 68 66 64 64 63 62 61 60 61 61 59 58 58 58 56 56 56 53 52 53 54 54 54 54
101 101 100 98 97 96 95 96 97 97 97 97 96 95 92 90 88 87 86 85 82 79 77 75 71 67 63 62 66 69 70 70 71 70 70 69 69 69 70 71 70 68 67 67 67 66 64 63 63 62 60 59 59 59 59 59 59 58 57 57 57 58 58
100 103 103 102 100 99 97 97 98 98 98 98 98 99 98 96 93 92 91 90 89 86 85 82 79 77 72 69 68 69 69 70 71 72 72 70 70 71 71 71 70 69 68 69 69 70 69 66 65 63 61 60 61 62 62 62 62 62 62 61 61 61 61
99 101 102 103 103 102 101 100 100 100 100 99 99 100 101 101 99 97 96 95 94 92 91 89 88 86 83 80 76 73 71 71 72 75 75 74 72 72 71 70 70 69 69 70 71 71 70 69 68 66 64 62 63 64 65 65 66 66 66 64 64 65 65
101 100 101 103 105 105 105 103 103 103 103 102 102 101 101 102 103 103 102 101 99 97 96 95 94 93 92 89 86 83 79 75 74 75 77 77 76 75 73 73 72 72 71 71 71 72 71 70 70 70 69 68 68 68 68 69 71 71 70 69 69 70 70
96 99 101 102 104 106 108 108 106 104 104 104 104 104 103 103 104 105 106 107 106 104 103 102 100 99 98 97 95 92 89 85 82 79 77 77 77 77 76 76 76 76 76 74 73 74 74 74 74 73 72 72 72 72 72 73 75 76 76 75 74 74 74
90 94 99 102 103 104 108 110 110 109 107 106 106 106 106 105 105 105 106 107 108 108 108 107 107 106 105 104 103 101 99 96 93 89 86 83 80 79 78 78 79 79 79 78 77 76 75 75 77 77 77 75 74 74 75 76 77 79 80 80 80 79 78
88 91 95 98 100 101 104 108 110 110 110 110 109 109 109 108 108 107 106 106 106 107 108 109 110 110 110 109 109 108 106 104 102 99 96 94 91 87 85 84 83 83 82 82 82 80 78 76 77 79 81 81 80 78 79 81 81 82 83 84 84 83 82
93 94 96 97 98 98 100 102 105 107 110 112 112 112 111 110 110 110 109 107 107 106 107 108 109 110 111 112 112 112 112 111 109 106 103 101 99 96 94 92 90 90 89 88 88 86 84 81 79 79 81 83 83 82 81 83 84 86 87 88 88 88 87
95 97 99 100 100 100 100 101 101 103 105 108 111 111 111 111 111 110 110 110 109 109 108 108 109 110 111 112 113 114 114 114 113 111 109 106 104 102 100 99 98 96 95 94 94 93 91 89 87 85 84 84 85 85 85 85 86 87 89 90 91 92 93
Wind_Direction
224 222 219 218 220 221 220 222 229 233 238 242 237 226 219 230 342 49 57 51 46 49 53 52 53 52 48 48 49 50 53 54 56 61 62 62 63 64 65 65 65 64 64 64 65 66 66 66 66 66 66 66 65 66 67 68 71 72 73 75 77 81 84
227 225 222 219 219 222 223 223 228 230 233 240 242 239 232 230 247 299 58 55 44 45 53 55 55 57 53 51 50 49 50 50 52 57 60 62 63 62 62 61 62 63 63 62 63 65 66 66 65 65 65 65 65 65 65 66 68 70 71 73 75 77 78
232 229 225 222 219 221 225 226 229 231 231 236 239 242 239 236 241 250 264 64 44 35 45 53 55 60 60 56 52 48 47 46 46 50 54 57 60 60 60 61 61 62 62 62 62 64 65 65 65 65 64 64 64 64 65 65 67 69 70 71 73 75 75
233 232 228 226 222 221 225 228 231 232 232 235 236 239 241 240 242 245 249 255 5 14 27 39 47 57 62 61 55 48 46 45 43 43 45 50 55 56 57 60 60 59 60 62 62 63 64 64 65 65 65 64 64 65 65 65 66 68 70 71 73 75 75
229 230 230 228 224 223 224 226 231 233 233 234 235 236 239 241 243 245 248 252 256 292 341 11 28 43 54 60 60 52 46 42 41 38 37 40 46 50 52 56 57 56 58 61 62 61 62 62 64 65 65 65 65 66 66 67 67 68 69 72 73 75 77
226 228 230 228 224 223 225 226 229 232 233 233 235 234 236 240 243 244 246 251 254 261 281 309 343 11 35 48 53 54 50 43 38 34 30 30 32 36 43 49 54 54 55 59 61 61 61 60 61 63 65 66 66 67 68 69 70 69 71 73 75 77 79
228 229 230 229 226 225 226 226 227 231 231 231 231 232 232 235 240 243 243 246 249 255 267 275 271 279 333 20 24 38 50 46 40 32 26 23 22 22 27 36 46 51 54 57 58 60 61 60 59 60 62 65 67 67 68 69 69 69 70 72 76 79 82
227 229 231 233 231 227 226 226 226 228 230 227 228 234 238 235 236 242 244 243 244 248 258 266 262 258 256 259 291 312 348 12 20 23 24 20 16 16 15 18 27 38 48 53 55 57 59 61 61 61 61 62 65 66 67 67 67 67 68 71 76 79 82
225 228 231 235 237 231 226 227 228 228 228 225 226 237 244 237 233 239 244 243 241 241 246 254 258 256 251 246 247 253 261 280 299 313 350 4 2 6 7 7 10 16 28 42 49 52 55 56 60 63 63 64 65 67 69 70 72 73 74 74 77 79 81
225 227 230 231 234 233 229 228 230 231 229 226 225 234 241 236 231 236 241 242 242 241 242 246 251 255 254 249 245 244 246 253 266 274 276 280 299 328 341 343 350 357 3 17 30 41 50 53 54 57 60 63 67 71 75 79 81 82 82 81 77 77 81
230 229 229 225 227 231 231 230 232 232 231 229 227 231 235 233 233 235 237 240 242 242 242 243 246 249 251 250 248 245 243 244 250 258 262 262 269 282 296 306 313 319 331 347 357 8 31 45 48 50 53 56 61 67 75 84 90 93 94 92 88 84 83
228 227 227 225 225 228 228 228 231 231 231 231 229 229 232 231 232 234 236 238 241 241 241 241 243 246 248 250 250 248 245 243 244 248 252 255 260 267 276 289 300 300 298 307 317 325 343 6 27 39 43 46 50 53 59 71 86 101 107 108 108 104 97
220 220 224 226 226 228 228 227 229 230 231 231 230 230 232 233 235 237 238 239 239 240 241 241 242 243 247 249 251 251 248 245 243 244 247 250 254 260 268 277 288 293 292 290 287 293 304 311 322 351 13 24 32 37 43 48 58 91 116 123 127 128 127
215 215 219 223 224 228 231 229 227 230 233 233 232 231 232 234 236 235 235 237 238 240 242 244 244 244 245 247 248 250 250 248 246 244 245 248 251 254 260 267 273 279 282 282 281 277 278 281 287 290 296 313 335 343 350 2 12 30 143 160 160 160 156
214 214 215 218 218 222 227 228 227 228 231 233 232 232 231 231 227 224 229 236 239 242 243 243 245 246 245 245 245 245 246 247 248 248 247 247 249 252 254 258 263 267 269 271 273 272 268 266 269 271 275 277 280 284 281 274 271 255 240 233 211 194 185
215 215 216 218 217 217 220 224 226 227 229 230 230 230 229 228 227 228 234 240 243 245 244 242 244 245 244 242 241 241 242 242 243 246 248 249 250 251 252 253 255 259 262 263 265 266 266 264 262 262 263 265 266 269 268 264 259 248 233 232 234 230 222
211 212 214 214 215 216 217 221 225 227 229 230 230 228 226 227 230 234 239 243 245 245 244 243 245 246 246 244 244 244 240 238 239 243 246 250 250 248 247 248 249 251 254 258 260 261 262 262 262 261 261 257 257 260 261 259 257 256 248 239 237 242 243
206 208 210 211 212 215 218 220 223 225 226 228 229 227 226 227 230 232 237 242 243 242 242 243 244 247 247 246 246 245 238 232 232 235 239 243 245 246 245 246 247 248 248 251 254 257 259 261 262 263 262 258 254 254 257 260 264 269 267 258 248 245 249
205 208 211 213 213 214 216 218 222 223 223 224 226 227 228 229 229 230 233 237 240 241 240 239 240 244 246 244 243 242 239 235 232 233 238 240 244 247 248 249 250 251 252 252 252 255 258 261 263 266 267 266 261 257 259 263 266 267 265 262 257 250 247
206 208 211 214 215 215 215 217 218 218 217 218 221 225 228 230 230 230 232 234 238 240 240 239 240 244 245 245 243 242 243 244 240 238 243 248 249 251 250 250 252 254 255 255 254 255 258 258 260 265 269 267 263 261 262 261 263 266 266 263 259 255 250
208 209 211 213 215 215 215 216 216 215 215 216 219 222 226 230 231 232 233 234 236 239 240 240 242 244 244 245 247 248 248 248 245 243 248 254 256 255 252 250 252 254 255 257 256 255 256 257 257 261 265 262 259 260 260 256 256 262 266 265 262 258 256
210 211 214 215 215 215 215 215 216 217 218 217 218 221 224 227 229 231 232 235 236 238 239 240 240 243 244 244 247 250 250 249 247 247 250 254 256 256 254 253 252 253 254 257 258 257 256 255 255 256 258 257 256 256 255 250 250 253 257 262 264 261 259
215 215 217 217 216 216 215 215 215 217 219 218 216 219 221 222 224 226 227 231 233 235 237 237 237 239 240 242 245 248 248 247 247 247 248 251 253 254 255 255 253 253 254 255 258 258 255 254 254 253 253 254 254 253 251 248 246 246 248 253 258 260 261
223 222 222 221 221 221 221 219 217 217 220 219 216 216 218 219 220 221 221 224 228 231 233 235 236 236 237 240 244 247 248 248 247 246 245 246 248 251 254 254 253 254 255 255 256 255 253 252 251 251 252 254 253 251 251 249 248 248 248 248 252 256 258
227 227 226 226 227 228 228 226 223 220 220 219 217 215 216 216 217 218 218 219 223 228 230 233 235 236 236 237 240 243 246 248 248 248 247 247 248 251 253 254 254 254 254 254 254 254 253 251 250 250 252 254 252 250 251 251 250 250 250 250 252 253 254
229 229 228 228 229 230 231 230 229 227 224 221 218 216 216 216 216 217 218 218 220 225 229 231 233 233 234 235 236 239 242 246 249 250 250 250 251 252 253 254 254 253 253 252 252 252 252 252 251 250 251 252 251 251 253 253 252 251 251 252 255 254 253
228 229 229 229 230 231 233 233 232 231 229 226 222 219 219 218 217 217 218 219 220 223 227 231 232 233 234 235 235 237 241 246 249 250 251 251 252 252 252 252 252 252 251 251 251 251 252 253 253 252 252 254 255 255 255 254 254 253 253 254 255 255 254
229 229 230 231 231 232 233 234 234 233 233 232 229 225 222 221 220 220 219 220 221 222 225 229 232 234 236 237 239 240 243 247 249 249 250 250 249 250 251 250 250 251 252 251 251 251 252 253 253 253 254 256 258 258 258 257 257 255 254 253 253 254 256
230 229 230 232 233 233 233 234 235 235 234 234 233 231 228 225 223 222 222 222 222 222 223 226 228 230 233 236 239 242 244 246 247 247 248 248 247 247 248 249 250 251 252 253 253 252 252 253 254 254 255 255 257 258 259 260 260 259 257 255 253 254 257
232 231 232 233 233 234 234 234 235 235 235 235 235 234 233 231 227 225 224 225 225 224 225 225 225 227 229 232 235 239 240 242 243 244 244 244 244 244 245 247 249 249 250 253 255 255 255 254 255 256 256 256 257 257 257 258 260 260 260 259 257 256 256
232 232 233 233 234 235 235 235 235 236 236 236 235 235 235 234 232 229 227 227 228 229 229 228 227 228 230 231 233 235 237 238 240 241 240 240 241 241 242 245 247 248 247 248 251 254 254 254 254 255 255 255 256 257 258 258 259 259 258 259 260 259 257
233 233 233 233 234 235 235 236 236 236 237 236 236 235 235 236 236 234 231 229 230 232 233 232 232 232 233 233 233 234 235 237 238 239 239 239 239 239 240 241 243 245 245 245 246 248 250 251 252 253 254 253 253 255 257 258 258 258 258 258 258 259 258
234 235 234 234 234 235 235 235 235 236 237 237 237 236 236 236 236 236 235 233 233 234 235 236 236 236 236 236 236 235 236 237 237 238 238 239 239 239 240 240 240 241 243 245 246 245 246 248 249 251 252 253 253 254 256 257 257 258 258 258 258 258 258
235 235 235 236 236 236 235 235 236 236 237 237 237 237 237 237 236 236 236 237 237 237 237 238 238 239 239 240 240 239 239 238 238 238 238 238 238 239 240 241 240 240 241 244 247 248 248 248 248 249 250 251 252 253 255 256 258 260 260 260 260 259 259
234 234 235 236 237 237 237 236 236 237 237 237 238 238 238 239 238 238 237 237 238 238 238 238 239 239 240 241 242 243 243 242 242 241 240 240 240 240 241 242 243 242 241 242 245 249 250 250 248 248 249 249 250 251 253 254 257 260 261 262 262 261 261
234 235 236 236 237 238 238 237 236 236 237 237 238 239 239 239 240 240 239 239 239 238 238 238 238 239 240 241 242 243 244 245 245 245 244 244 243 242 243 244 245 245 244 244 244 246 249 250 249 249 249 250 250 250 251 253 255 256 258 260 261 262 261
237 237 237 237 238 238 238 238 238 238 238 238 238 239 240 240 240 241 241 242 241 240 239 239 238 239 239 240 241 242 244 245 247 247 247 247 246 245 245 245 246 247 247 247 247 247 248 250 250 250 251 251 251 251 251 252 254 255 256 257 258 259 260
237 238 238 238 238 239 239 239 239 239 240 240 240 240 240 241 241 242 242 243 243 243 242 241 240 240 240 240 241 242 243 245 246 247 248 249 248 248 247 247 247 247 247 248 248 249 249 250 252 253 253 254 254 254 254 254 255 255 256 257 258 259 260
Height
11015 11017 11019 11021 11023 11025 11027 11028 11029 11031 11032 11033 11034 11035 11035 11036 11036 11036 11035 11036 11036 11035 11035 11034 11034 11033 11033 11033 11032 11031 11030 11029 11028 11027 11026 11025 11024 11023 11022 11021 11021 11020 11019 11018 11017 11016 11015 11014 11013 11011 11010 11009 11008 11006 11005 11004 11003 11001 11000 10999 10998 10998 10997
11013 11015 11017 11019 11021 11023 11025 11027 11028 11030 11031 11032 11034 11034 11035 11036 11036 11036 11036 11036 11037 11037 11036 11036 11035 11035 11035 11034 11034 11033 11032 11031 11030 11029 11028 11027 11027 11026 11025 11024 11023 11023 11022 11021 11020 11019 11018 11017 11016 11015 11014 11013 11011 11010 11009 11007 11006 11005 11003 11002 11001 11001 11000
11010 11012 11015 11017 11019 11021 11023 11025 11027 11028 11030 11031 11033 11034 11035 11036 11036 11037 11037 11037 11038 11038 11038 11037 11037 11037 11036 11036 11036 11035 11035 11034 11033 11032 11031 11030 11029 11028 11027 11027 11026 11025 11025 11024 11023 11022 11021 11020 11019 11019 11017 11016 11015 11014 11012 11011 11010 11008 11007 11006 11005 11004 11003
11007 11010 11012 11015 11018 11020 11022 11024 11025 11027 11029 11030 11031 11033 11034 11036 11036 11037 11038 11038 11038 11038 11039 11039 11038 11038 11038 11037 11037 11037 11036 11036 11035 11034 11033 11032 11031 11030 11030 11029 11028 11028 11027 11026 11025 11025 11024 11023 11022 11022 11021 11020 11019 11017 11016 11015 11013 11012 11010 11009 11008 11007 11006
11005 11007 11010 11013 11016 11018 11020 11022 11024 11025 11027 11029 11030 11032 11033 11035 11036 11037 11037 11038 11038 11039 11039 11039 11039 11039 11039 11038 11038 11038 11038 11037 11037 11036 11035 11034 11033 11033 11032 11031 11030 11030 11029 11028 11028 11027 11027 11026 11025 11024 11023 11022 11021 11020 11020 11018 11017 11016 11014 11013 11012 11011 11010
11001 11004 11007 11010 11013 11015 11018 11020 11022 11024 11025 11027 11028 11030 11032 11033 11035 11036 11037 11038 11038 11039 11039 11039 11039 11039 11039 11039 11039 11039 11039 11038 11038 11037 11036 11036 11035 11035 11034 11033 11032 11032 11031 11030 11030 11029 11029 11028 11028 11027 11026 11025 11024 11023 11022 11021 11020 11019 11018 11017 11016 11015 11015
10998 11001 11004 11007 11010 11013 11016 11018 11020 11022 11023 11025 11027 11028 11030 11032 11033 11035 11036 11037 11038 11038 11039 11039 11039 11039 11039 11039 11039 11039 11039 11039 11039 11038 11037 11037 11037 11036 11036 11035 11035 11034 11033 11032 11031 11031 11030 11030 11029 11029 11028 11028 11027 11026 11025 11024 11024 11023 11022 11021 11020 11020 11019
10995 10999 11001 11004 11008 11011 11014 11016 11018 11019 11021 11023 11025 11027 11028 11030 11032 11033 11035 11036 11037 11037 11038 11038 11039 11039 11039 11039 11039 11039 11039 11039 11039 11039 11038 11038 11037 11037 11037 11036 11036 11035 11034 11033 11032 11032 11031 11031 11031 11030 11030 11030 11029 11028 11028 11027 11027 11026 11026 11025 11024 11024 11023
10992 10996 10999 11001 11004 11008 11011 11013 11015 11017 11019 11021 11023 11025 11027 11029 11030 11032 11033 11034 11035 11035 11036 11037 11037 11038 11038 11038 11038 11038 11039 11039 11039 11039 11039 11039 11038 11038 11038 11037 11037 11036 11035 11035 11034 11033 11033 11032 11032 11031 11031 11031 11031 11030 11030 11030 11029 11029 11029 11028 11028 11027 11027
10989 10993 10996 10997 10999 11003 11007 11010 11012 11014 11016 11018 11020 11023 11025 11027 11028 11030 11031 11032 11033 11034 11034 11035 11035 11036 11037 11037 11037 11038 11038 11038 11038 11038 11038 11039 11038 11038 11038 11038 11037 11037 11036 11035 11035 11034 11034 11033 11033 11033 11032 11032 11032 11032 11031 11031 11031 11031 11031 11031 11031 11030 11030
10986 10989 10992 10994 10995 10997 11002 11006 11009 11011 11013 11016 11019 11021 11023 11024 11026 11027 11029 11030 11031 11032 11032 11033 11033 11034 11035 11035 11036 11036 11037 11037 11037 11037 11037 11038 11038 11038 11038 11038 11037 11037 11036 11036 11035 11035 11034 11034 11034 11034 11033 11033 11033 11033 11033 11033 11033 11033 11033 11033 11033 11033 11032
10981 10984 10987 10989 10991 10992 10996 11002 11004 11006 11009 11013 11016 11018 11019 11021 11024 11025 11025 11027 11028 11029 11029 11030 11031 11032 11033 11033 11034 11035 11035 11035 11036 11036 11036 11036 11037 11037 11037 11037 11037 11037 11036 11036 11036 11035 11035 11035 11035 11034 11034 11034 11034 11034 11034 11034 11034 11034 11034 11034 11034 11034 11034
10977 10981 10982 10984 10987 10989 10992 10997 11000 11002 11005 11009 11012 11014 11016 11019 11022 11022 11023 11024 11024 11025 11026 11027 11028 11029 11030 11030 11031 11032 11033 11033 11034 11034 11034 11034 11035 11035 11036 11036 11037 11036 11036 11036 11036 11036 11035 11035 11035 11034 11034 11035 11035 11035 11035 11035 11035 11035 11035 11035 11035 11035 11035
10973 10977 10979 10981 10984 10986 10988 10991 10994 10997 11001 11005 11008 11010 11013 11016 11019 11020 11021 11020 11020 11021 11023 11024 11025 11026 11026 11027 11027 11028 11029 11030 11031 11032 11032 11032 11033 11033 11034 11034 11035 11035 11035 11035 11035 11035 11035 11035 11035 11035 11035 11035 11035 11035 11035 11035 11035 11035 11035 11036 11036 11036 11036
10965 10969 10974 10977 10980 10982 10984 10986 10988 10992 10996 11000 11003 11006 11010 11014 11016 11018 11018 11015 11014 11017 11019 11021 11022 11020 11020 11021 11022 11023 11025 11026 11027 11028 11029 11029 11030 11030 11031 11031 11032 11032 11033 11033 11033 11034 11034 11034 11035 11035 11035 11035 11035 11035 11036 11035 11035 11035 11035 11036 11036 11036 11036
10958 10963 10969 10973 10976 10978 10979 10980 10983 10988 10991 10995 10999 11003 11006 11010 11013 11014 11012 11009 11011 11015 11016 11017 11016 11013 11013 11015 11016 11018 11019 11020 11021 11023 11024 11025 11026 11026 11027 11027 11028 11029 11029 11030 11031 11032 11032 11033 11033 11034 11035 11035 11035 11035 11035 11035 11035 11035 11035 11036 11036 11036 11036
10953 10958 10963 10967 10971 10973 10974 10976 10979 10983 10987 10990 10994 10997 11001 11003 11006 11006 11005 11005 11008 11011 11012 11013 11013 11010 11011 11012 11013 11013 11014 11013 11014 11017 11018 11020 11020 11020 11021 11022 11024 11025 11026 11027 11029 11029 11030 11030 11031 11031 11032 11033 11034 11034 11034 11033 11034 11035 11035 11035 11036 11036 11036
10948 10953 10957 10961 10965 10968 10970 10973 10976 10979 10982 10984 10987 10991 10994 10996 10998 11000 11000 11002 11004 11006 11007 11010 11011 11010 11010 11010 11010 11011 11010 11008 11008 11009 11011 11013 11014 11015 11017 11019 11020 11021 11023 11025 11026 11027 11028 11028 11029 11029 11030 11031 11032 11032 11031 11031 11033 11035 11035 11035 11035 11035 11035
10942 10947 10951 10955 10958 10962 10965 10969 10971 10974 10977 10979 10982 10985 10987 10990 10992 10994 10995 10998 11000 11001 11004 11007 11008 11008 11008 11008 11008 11009 11009 11008 11007 11007 11008 11011 11012 11013 11015 11016 11017 11019 11022 11024 11026 11027 11027 11028 11028 11028 11029 11029 11030 11030 11029 11030 11032 11033 11033 11033 11034 11034 11034
10937 10941 10945 10948 10952 10956 10959 10963 10967 10969 10972 10975 10977 10980 10982 10984 10986 10988 10990 10993 10995 10997 10999 11002 11004 11005 11006 11005 11005 11006 11007 11008 11009 11009 11009 11010 11011 11011 11011 11012 11014 11016 11019 11021 11024 11026 11026 11026 11027 11026 11026 11027 11028 11027 11027 11029 11030 11030 11031 11031 11031 11031 11032
10930 10935 10938 10941 10946 10950 10953 10957 10962 10965 10968 10971 10973 10975 10977 10979 10981 10983 10984 10987 10990 10992 10995 10997 10998 11000 11002 11001 11001 11002 11003 11005 11006 11007 11008 11009 11009 11008 11008 11009 11011 11013 11015 11017 11020 11022 11023 11023 11024 11024 11024 11025 11025 11024 11025 11026 11026 11027 11028 11028 11028 11029 11029
10924 10928 10931 10935 10939 10942 10946 10950 10955 10959 10962 10965 10968 10969 10971 10973 10975 10977 10979 10981 10985 10988 10990 10991 10992 10994 10996 10998 10997 10998 11000 11001 11002 11003 11005 11006 11005 11004 11004 11006 11008 11009 11012 11014 11015 11018 11019 11019 11020 11020 11021 11021 11022 11021 11021 11022 11023 11024 11025 11025 11025 11026 11026
10917 10921 10924 10928 10931 10934 10939 10943 10947 10951 10955 10958 10961 10962 10964 10966 10968 10971 10973 10975 10979 10982 10984 10984 10985 10987 10990 10992 10992 10992 10995 10996 10997 10998 11000 11001 11001 11000 11000 11002 11004 11006 11007 11009 11011 11012 11013 11014 11015 11016 11016 11016 11017 11017 11017 11018 11019 11020 11021 11022 11022 11022 11023
10910 10914 10917 10920 10922 10925 10930 10934 10938 10943 10946 10950 10953 10955 10957 10960 10962 10965 10967 10969 10972 10974 10976 10977 10978 10980 10984 10985 10986 10987 10989 10990 10991 10993 10994 10995 10995 10995 10996 10997 11000 11002 11002 11004 11006 11007 11008 11008 11009 11011 11011 11010 11011 11012 11013 11015 11016 11017 11018 11019 11019 11019 11019
10902 10906 10908 10910 10913 10916 10920 10924 10929 10933 10937 10941 10945 10947 10950 10952 10955 10957 10959 10961 10965 10967 10969 10971 10972 10974 10977 10978 10979 10981 10983 10984 10985 10986 10987 10988 10989 10991 10991 10992 10996 10998 10997 10998 11000 11001 11002 11002 11003 11005 11005 11005 11006 11008 11010 11011 11012 11013 11013 11014 11015 11016 11016
10893 10895 10898 10901 10904 10907 10911 10915 10920 10923 10927 10931 10935 10938 10941 10944 10947 10950 10951 10954 10958 10960 10962 10964 10966 10968 10970 10971 10972 10974 10975 10977 10979 10980 10981 10981 10983 10986 10986 10986 10990 10992 10991 10992 10994 10994 10995 10996 10996 10998 10999 10999 11002 11005 11006 11006 11007 11008 11008 11009 11010 11011 11011
10883 10885 10889 10892 10895 10899 10902 10906 10910 10914 10917 10921 10925 10929 10933 10936 10939 10942 10944 10947 10951 10953 10955 10957 10958 10961 10963 10964 10965 10967 10968 10970 10972 10973 10975 10976 10978 10979 10979 10980 10983 10985 10985 10986 10987 10987 10988 10989 10990 10992 10994 10994 10996 10999 11000 11000 11001 11003 11003 11004 11005 11005 11005
10873 10876 10880 10883 10887 10890 10893 10897 10901 10905 10908 10912 10916 10920 10924 10927 10930 10934 10936 10940 10943 10946 10948 10950 10951 10953 10955 10957 10958 10960 10962 10963 10965 10967 10968 10969 10971 10972 10973 10974 10976 10978 10978 10979 10980 10980 10981 10982 10983 10986 10988 10987 10988 10990 10992 10993 10994 10996 10997 10998 10999 10999 10999
10863 10867 10870 10873 10877 10880 10883 10887 10890 10894 10898 10902 10906 10911 10915 10918 10921 10925 10928 10931 10935 10938 10940 10942 10943 10945 10947 10949 10950 10952 10954 10956 10958 10959 10961 10962 10964 10965 10967 10968 10970 10972 10972 10972 10973 10974 10974 10975 10975 10978 10980 10980 10981 10982 10983 10985 10986 10988 10989 10991 10992 10993 10994
10852 10857 10860 10862 10866 10869 10873 10877 10880 10883 10888 10892 10896 10900 10905 10908 10911 10915 10918 10922 10925 10928 10930 10932 10935 10937 10939 10941 10942 10944 10946 10948 10950 10952 10953 10955 10957 10959 10960 10961 10963 10964 10965 10966 10966 10966 10967 10968 10968 10969 10971 10972 10973 10974 10975 10977 10978 10980 10981 10982 10984 10986 10987
10842 10846 10848 10852 10855 10859 10862 10866 10869 10872 10876 10881 10885 10890 10893 10897 10901 10905 10909 10912 10915 10918 10920 10923 10926 10928 10930 10932 10933 10935 10937 10940 10942 10944 10945 10947 10949 10951 10952 10954 10955 10956 10957 10958 10959 10959 10959 10961 10961 10962 10963 10964 10965 10966 10967 10969 10970 10971 10972 10975 10976 10977 10978
10830 10833 10837 10841 10844 10846 10850 10853 10856 10860 10864 10869 10874 10878 10882 10886 10890 10895 10899 10902 10905 10907 10910 10913 10916 10918 10920 10922 10924 10926 10929 10931 10934 10935 10937 10939 10941 10942 10944 10945 10947 10948 10948 10949 10950 10951 10952 10953 10954 10955 10956 10957 10957 10958 10959 10960 10961 10961 10964 10968 10969 10968 10968
10816 10822 10827 10830 10833 10836 10839 10842 10846 10850 10853 10857 10862 10866 10870 10875 10879 10883 10887 10891 10894 10897 10899 10903 10906 10908 10910 10912 10915 10917 10920 10922 10924 10926 10928 10930 10931 10933 10935 10937 10938 10939 10940 10940 10941 10942 10943 10945 10946 10947 10948 10949 10950 10951 10951 10950 10949 10951 10955 10959 10959 10958 10959
10806 10812 10816 10819 10823 10826 10829 10833 10836 10839 10843 10846 10850 10854 10858 10862 10867 10872 10876 10880 10883 10887 10889 10892 10895 10897 10899 10902 10904 10907 10910 10913 10915 10917 10918 10920 10921 10924 10926 10927 10928 10929 10932 10933 10933 10932 10934 10936 10938 10939 10939 10939 10941 10943 10943 10941 10940 10941 10944 10947 10949 10949 10950
10797 10801 10803 10807 10811 10814 10818 10822 10826 10829 10832 10834 10838 10841 10845 10850 10855 10859 10864 10868 10871 10875 10878 10881 10884 10886 10888 10891 10893 10896 10899 10902 10904 10907 10909 10910 10911 10913 10915 10917 10918 10920 10923 10924 10924 10924 10924 10926 10928 10930 10930 10930 10932 10934 10934 10933 10933 10934 10934 10935 10937 10939 10940
10787 10790 10792 10796 10800 10803 10808 10811 10815 10818 10821 10823 10826 10829 10833 10837 10842 10846 10850 10854 10858 10862 10866 10869 10872 10875 10877 10879 10882 10884 10887 10890 10892 10895 10898 10900 10901 10903 10905 10906 10908 10911 10913 10914 10915 10915 10915 10917 10919 10920 10920 10921 10923 10925 10925 10924 10924 10925 10925 10925 10926 10928 10930
10777 10779 10782 10786 10789 10792 10795 10799 10802 10806 10808 10811 10814 10818 10822 10826 10830 10834 10838 10841 10846 10850 10853 10857 10860 10863 10866 10869 10871 10873 10875 10877 10880 10883 10886 10888 10890 10893 10895 10896 10897 10900 10903 10904 10905 10905 10906 10907 10909 10910 10910 10910 10912 10915 10916 10915 10915 10915 10916 10916 10917 10917 10918
10765 10767 10769 10773 10777 10779 10781 10785 10788 10792 10795 10798 10803 10807 10811 10814 10818 10822 10826 10829 10833 10837 10840 10844 10848 10851 10854 10857 10859 10861 10863 10865 10867 10870 10873 10875 10877 10881 10884 10885 10886 10889 10891 10893 10894 10895 10896 10897 10898 10899 10900 10900 10901 10903 10905 10906 10906 10906 10906 10907 10907 10907 10907